| time (UTC) | temp F | wind direction | speed MPH | gust MPH | rain 1hr in | rain 24hr in | rain mn in | humidity % | barometer mb |
| 20260509054503 | 71 | 5 | 0.0 | 0.0 | 0.00 | 0.00 | 0.00 | 1 | 1010.5 |
| 20260509053135 | 70 | 6 | 0.0 | 1.0 | 0.00 | 0.00 | 0.00 | 1 | 1010.4 |
| 20260509051555 | 70 | 98 | 0.0 | 0.0 | 0.00 | 0.00 | 0.00 | 1 | 1009.6 |
| 20260509050050 | 71 | 98 | 0.0 | 0.0 | 0.00 | 0.00 | 0.00 | 1 | 1009.6 |
| 20260509044548 | 71 | 98 | 0.0 | 0.0 | 0.00 | 0.00 | 0.00 | 1 | 1009.4 |
| 20260509043102 | 72 | 98 | 0.0 | 0.0 | 0.00 | 0.00 | 0.00 | 1 | 1009.4 |
| 20260509041556 | 72 | 99 | 0.0 | 0.0 | 0.00 | 0.00 | 0.00 | 1 | 1009.6 |
| 20260509040050 | 72 | 97 | 0.0 | 0.0 | 0.00 | 0.00 | 0.00 | 1 | 1009.9 |
| 20260509034559 | 72 | 98 | 0.0 | 0.0 | 0.00 | 0.00 | 0.00 | 1 | 1009.7 |
| 20260509033059 | 72 | 98 | 0.0 | 0.0 | 0.00 | 0.00 | 0.00 | 1 | 1009.0 |
| 20260509031605 | 73 | 98 | 0.0 | 1.0 | 0.00 | 0.00 | 0.00 | 3 | 1008.7 |
| 20260509030036 | 73 | 96 | 0.0 | 0.0 | 0.00 | 0.00 | 0.00 | 7 | 1008.6 |
| 20260509024530 | 73 | 148 | 0.0 | 0.0 | 0.00 | 0.00 | 0.00 | 8 | 1008.3 |
| 20260509023026 | 73 | 148 | 0.0 | 1.0 | 0.00 | 0.00 | 0.00 | 11 | 1008.0 |
| 20260509021522 | 73 | 148 | 0.0 | 1.0 | 0.00 | 0.00 | 0.00 | 12 | 1007.9 |
| 20260509020022 | 73 | 127 | 0.0 | 0.0 | 0.00 | 0.00 | 0.00 | 12 | 1008.1 |
| 20260509014513 | 73 | 127 | 0.0 | 0.0 | 0.00 | 0.00 | 0.00 | 12 | 1008.1 |
| 20260509013008 | 73 | 127 | 0.0 | 0.0 | 0.00 | 0.00 | 0.00 | 13 | 1008.0 |
| 20260509011504 | 73 | 127 | 0.0 | 0.0 | 0.00 | 0.00 | 0.00 | 16 | 1008.0 |
| 20260509010100 | 73 | 127 | 0.0 | 0.0 | 0.00 | 0.00 | 0.00 | 18 | 1007.6 |
| 20260509004600 | 73 | 127 | 0.0 | 1.0 | 0.00 | 0.00 | 0.00 | 22 | 1007.4 |
| 20260509003051 | 74 | 122 | 0.0 | 0.0 | 0.00 | 0.00 | 0.00 | 25 | 1007.3 |
| 20260509001546 | 74 | 124 | 0.0 | 1.0 | 0.00 | 0.00 | 0.00 | 29 | 1007.5 |
| 20260509000042 | 74 | 121 | 0.0 | 1.0 | 0.00 | 0.00 | 0.00 | 32 | 1007.4 |
| 20260508234538 | 74 | 72 | 0.0 | 0.0 | 0.00 | 0.00 | 0.00 | 34 | 1007.7 |
| 20260508233033 | 75 | 89 | 0.0 | 0.0 | 0.00 | 0.00 | 0.00 | 39 | 1007.7 |
| 20260508231529 | 75 | 84 | 0.0 | 0.0 | 0.00 | 0.00 | 0.00 | 44 | 1007.7 |
| 20260508230035 | 76 | 152 | 0.0 | 1.0 | 0.00 | 0.00 | 0.00 | 48 | 1007.7 |
| 20260508224526 | 76 | 167 | 0.0 | 1.0 | 0.00 | 0.00 | 0.00 | 50 | 1007.6 |
| 20260508223014 | 77 | 78 | 0.0 | 1.0 | 0.00 | 0.00 | 0.00 | 53 | 1007.6 |
| 20260508221525 | 77 | 162 | 0.0 | 1.0 | 0.00 | 0.00 | 0.00 | 53 | 1007.8 |
| 20260508220006 | 76 | 153 | 0.0 | 1.0 | 0.00 | 0.00 | 0.00 | 50 | 1008.0 |
| 20260508214501 | 75 | 170 | 0.0 | 1.0 | 0.00 | 0.00 | 0.00 | 52 | 1008.2 |
| 20260508213057 | 75 | 164 | 0.0 | 1.0 | 0.00 | 0.00 | 0.00 | 52 | 1008.3 |
| 20260508211553 | 75 | 142 | 0.0 | 2.0 | 0.00 | 0.00 | 0.00 | 50 | 1008.7 |
| 20260508210048 | 72 | 165 | 0.0 | 1.0 | 0.00 | 0.00 | 0.00 | 48 | 1008.9 |
| 20260508204544 | 70 | 243 | 0.0 | 1.0 | 0.00 | 0.00 | 0.00 | 39 | 1009.2 |
| 20260508203040 | 70 | 156 | 0.0 | 1.0 | 0.00 | 0.00 | 0.00 | 48 | 1008.6 |
| 20260508201535 | 71 | 157 | 0.0 | 1.0 | 0.00 | 0.00 | 0.00 | 54 | 1009.7 |
| 20260508200043 | 72 | 285 | 0.0 | 0.0 | 0.00 | 0.00 | 0.00 | 56 | 1010.5 |
| 20260508194526 | 73 | 153 | 0.0 | 1.0 | 0.00 | 0.00 | 0.00 | 55 | 1010.4 |
| 20260508193021 | 74 | 177 | 0.0 | 1.0 | 0.00 | 0.00 | 0.00 | 55 | 1010.2 |
| 20260508191519 | 74 | 154 | 0.0 | 2.0 | 0.00 | 0.00 | 0.00 | 56 | 1010.2 |
| 20260508190012 | 74 | 155 | 0.0 | 1.0 | 0.00 | 0.00 | 0.00 | 56 | 1010.5 |
| 20260508184508 | 75 | 151 | 0.0 | 1.0 | 0.00 | 0.00 | 0.00 | 56 | 1010.6 |
| 20260508183004 | 76 | 188 | 0.0 | 1.0 | 0.00 | 0.00 | 0.00 | 56 | 1010.8 |
| 20260508181600 | 76 | 153 | 0.0 | 2.0 | 0.00 | 0.00 | 0.00 | 55 | 1011.0 |
| 20260508180056 | 75 | 152 | 0.0 | 1.0 | 0.00 | 0.00 | 0.00 | 54 | 1010.9 |
| 20260508174550 | 74 | 151 | 0.0 | 0.0 | 0.00 | 0.00 | 0.00 | 54 | 1011.5 |
| 20260508173046 | 73 | 231 | 0.0 | 1.0 | 0.00 | 0.00 | 0.00 | 54 | 1011.7 |
| 20260508171550 | 74 | 98 | 0.0 | 1.0 | 0.00 | 0.00 | 0.00 | 55 | 1012.1 |
| 20260508170038 | 73 | 158 | 0.0 | 1.0 | 0.00 | 0.00 | 0.00 | 54 | 1012.1 |
| 20260508164537 | 71 | 151 | 0.0 | 1.0 | 0.00 | 0.00 | 0.00 | 51 | 1012.3 |
| 20260508163028 | 69 | 145 | 0.0 | 0.0 | 0.00 | 0.00 | 0.00 | 51 | 1012.5 |
| 20260508161524 | 68 | 145 | 0.0 | 1.0 | 0.00 | 0.00 | 0.00 | 48 | 1012.8 |
| 20260508160024 | 67 | 148 | 0.0 | 1.0 | 0.00 | 0.00 | 0.00 | 48 | 1013.2 |
| 20260508154516 | 67 | 145 | 0.0 | 1.0 | 0.00 | 0.00 | 0.00 | 48 | 1013.5 |
| 20260508153011 | 67 | 150 | 0.0 | 1.0 | 0.00 | 0.00 | 0.00 | 48 | 1013.7 |
| 20260508151506 | 67 | 148 | 0.0 | 0.0 | 0.00 | 0.00 | 0.00 | 47 | 1013.6 |
| 20260508150004 | 67 | 95 | 0.0 | 0.0 | 0.00 | 0.00 | 0.00 | 49 | 1013.7 |
| 20260508144558 | 67 | 141 | 0.0 | 1.0 | 0.00 | 0.00 | 0.00 | 49 | 1013.7 |
| 20260508143054 | 67 | 148 | 0.0 | 1.0 | 0.00 | 0.00 | 0.00 | 47 | 1013.8 |
| 20260508141549 | 66 | 140 | 0.0 | 1.0 | 0.00 | 0.00 | 0.00 | 41 | 1013.9 |
| 20260508140044 | 65 | 155 | 0.0 | 0.0 | 0.00 | 0.00 | 0.00 | 28 | 1014.2 |
| 20260508134540 | 64 | 54 | 0.0 | 1.0 | 0.00 | 0.00 | 0.00 | 14 | 1014.1 |
| 20260508133038 | 62 | 166 | 0.0 | 0.0 | 0.00 | 0.00 | 0.00 | 1 | 1013.9 |
| 20260508131531 | 62 | 200 | 0.0 | 0.0 | 0.00 | 0.00 | 0.00 | 1 | 1013.9 |
| 20260508130027 | 61 | 208 | 0.0 | 0.0 | 0.00 | 0.00 | 0.00 | 1 | 1014.1 |
| 20260508124522 | 60 | 208 | 0.0 | 0.0 | 0.00 | 0.00 | 0.00 | 1 | 1014.2 |
| 20260508123019 | 60 | 208 | 0.0 | 0.0 | 0.00 | 0.00 | 0.00 | 1 | 1014.2 |
| 20260508121514 | 60 | 208 | 0.0 | 0.0 | 0.00 | 0.00 | 0.00 | 1 | 1014.4 |
| 20260508120010 | 60 | 208 | 0.0 | 0.0 | 0.00 | 0.00 | 0.00 | 1 | 1014.1 |
| 20260508114505 | 60 | 208 | 0.0 | 0.0 | 0.00 | 0.00 | 0.00 | 1 | 1014.2 |
| 20260508113001 | 60 | 209 | 0.0 | 0.0 | 0.00 | 0.00 | 0.00 | 1 | 1014.2 |
| 20260508111557 | 60 | 209 | 0.0 | 0.0 | 0.00 | 0.00 | 0.00 | 1 | 1014.1 |
| 20260508110056 | 60 | 209 | 0.0 | 0.0 | 0.00 | 0.00 | 0.00 | 1 | 1014.4 |
| 20260508104616 | 60 | 208 | 0.0 | 0.0 | 0.00 | 0.00 | 0.00 | 1 | 1014.2 |
| 20260508103046 | 60 | 208 | 0.0 | 0.0 | 0.00 | 0.00 | 0.00 | 1 | 1014.0 |
| 20260508101541 | 60 | 208 | 0.0 | 0.0 | 0.00 | 0.00 | 0.00 | 1 | 1013.2 |
| 20260508100034 | 60 | 208 | 0.0 | 0.0 | 0.00 | 0.00 | 0.00 | 1 | 1013.4 |
| 20260508094530 | 60 | 208 | 0.0 | 0.0 | 0.00 | 0.00 | 0.00 | 1 | 1013.6 |
| 20260508093026 | 60 | 208 | 0.0 | 0.0 | 0.00 | 0.00 | 0.00 | 1 | 1013.8 |
| 20260508091521 | 60 | 208 | 0.0 | 0.0 | 0.00 | 0.00 | 0.00 | 1 | 1013.6 |
| 20260508090018 | 60 | 208 | 0.0 | 0.0 | 0.00 | 0.00 | 0.00 | 1 | 1013.3 |
| 20260508084512 | 61 | 208 | 0.0 | 0.0 | 0.00 | 0.00 | 0.00 | 1 | 1013.7 |
| 20260508083008 | 60 | 208 | 0.0 | 0.0 | 0.00 | 0.00 | 0.00 | 1 | 1013.4 |
| 20260508081504 | 61 | 208 | 0.0 | 0.0 | 0.00 | 0.00 | 0.00 | 1 | 1013.9 |
| 20260508080110 | 61 | 208 | 0.0 | 0.0 | 0.00 | 0.00 | 0.00 | 1 | 1014.4 |
| 20260508074556 | 61 | 209 | 0.0 | 0.0 | 0.00 | 0.00 | 0.00 | 1 | 1014.8 |
| 20260508073052 | 61 | 209 | 0.0 | 0.0 | 0.00 | 0.00 | 0.00 | 1 | 1014.8 |
| 20260508071549 | 61 | 208 | 0.0 | 0.0 | 0.00 | 0.00 | 0.00 | 1 | 1014.9 |
| 20260508070128 | 62 | 208 | 0.0 | 0.0 | 0.00 | 0.00 | 0.00 | 15 | 1014.7 |
| 20260508064540 | 62 | 208 | 0.0 | 0.0 | 0.00 | 0.00 | 0.00 | 27 | 1014.6 |
| 20260508063037 | 62 | 208 | 0.0 | 0.0 | 0.00 | 0.00 | 0.00 | 27 | 1014.8 |
| 20260508061537 | 61 | 208 | 0.0 | 0.0 | 0.00 | 0.00 | 0.00 | 29 | 1014.8 |
| 20260508060034 | 61 | 208 | 0.0 | 0.0 | 0.00 | 0.00 | 0.00 | 35 | 1015.1 |